When you browse on this site, cookies collect data to enhance your experience and personalize the content and advertising you see.
Visit our Privacy Policy to learn more. By continuing to use the site, you agree to this use of cookies and data.
  • In Romania
  • List of Countries
  • For 7 days
  • Water Temperature
  • Weather Map
  • Weather Widgets
  • user-avatar
    Login

    Hourly Weather Mochudi

    Today, 20 September, Friday

    Time Temperature Precipitation Wind Pressure Humidity
    00:00 +22°C° 0 mm 4 mps 685 mmHg 33%
    01:00 +21°C° 0 mm 3 mps 684 mmHg 38%
    02:00 +20°C° 0 mm 3 mps 684 mmHg 46%
    03:00 +19°C° 0 mm 3 mps 684 mmHg 52%
    04:00 +18°C° 0 mm 2 mps 684 mmHg 58%
    05:00 +17°C° 0 mm 2 mps 684 mmHg 64%
    06:00 +18°C° 0 mm 2 mps 684 mmHg 61%
    07:00 +19°C° 0 mm 2 mps 685 mmHg 58%
    08:00 +20°C° 0 mm 3 mps 686 mmHg 56%
    09:00 +24°C° 0 mm 3 mps 686 mmHg 45%
    10:00 +27°C° 0 mm 3 mps 686 mmHg 33%
    11:00 +30°C° 0 mm 4 mps 686 mmHg 22%
    12:00 +33°C° 0 mm 4 mps 685 mmHg 18%
    13:00 +35°C° 0 mm 5 mps 685 mmHg 15%
    14:00 +36°C° 0 mm 5 mps 684 mmHg 11%
    15:00 +36°C° 0 mm 5 mps 684 mmHg 11%
    16:00 +35°C° 0 mm 5 mps 683 mmHg 11%
    17:00 +35°C° 0 mm 6 mps 682 mmHg 11%
    18:00 +33°C° 0 mm 5 mps 682 mmHg 14%
    19:00 +29°C° 0 mm 4 mps 682 mmHg 17%
    20:00 +27°C° 0 mm 3 mps 682 mmHg 20%
    21:00 +26°C° 0 mm 2 mps 682 mmHg 22%
    22:00 +25°C° 0 mm 2 mps 682 mmHg 23%
    23:00 +24°C° 0 mm 2 mps 682 mmHg 25%

    Tomorrow, 21 September, Saturday

    Time Temperature Precipitation Wind Pressure Humidity
    00:00 +23°C° 0 mm 2 mps 682 mmHg 28%
    01:00 +21°C° 0 mm 2 mps 682 mmHg 32%
    02:00 +20°C° 0 mm 2 mps 682 mmHg 35%
    03:00 +20°C° 0 mm 2 mps 682 mmHg 39%
    04:00 +19°C° 0 mm 3 mps 682 mmHg 43%
    05:00 +18°C° 0 mm 3 mps 681 mmHg 47%
    06:00 +20°C° 0 mm 3 mps 682 mmHg 45%
    07:00 +21°C° 0 mm 3 mps 682 mmHg 44%
    08:00 +22°C° 0 mm 4 mps 683 mmHg 42%
    09:00 +26°C° 0 mm 4 mps 683 mmHg 36%
    10:00 +28°C° 0 mm 4 mps 683 mmHg 30%
    11:00 +32°C° 0 mm 5 mps 683 mmHg 24%
    12:00 +33°C° 0 mm 4 mps 683 mmHg 21%
    13:00 +35°C° 0 mm 4 mps 682 mmHg 17%
    14:00 +36°C° 0 mm 4 mps 681 mmHg 14%
    15:00 +36°C° 0 mm 4 mps 680 mmHg 13%
    16:00 +36°C° 0 mm 4 mps 680 mmHg 12%
    17:00 +36°C° 0 mm 4 mps 680 mmHg 11%
    18:00 +33°C° 0 mm 3 mps 679 mmHg 14%
    19:00 +29°C° 0 mm 3 mps 679 mmHg 16%
    20:00 +27°C° 0 mm 3 mps 679 mmHg 19%
    21:00 +26°C° 0 mm 3 mps 679 mmHg 20%
    22:00 +25°C° 0 mm 3 mps 679 mmHg 22%
    23:00 +24°C° 0 mm 3 mps 679 mmHg 24%

    Day after tomorrow, 22 September, Sunday

    Time Temperature Precipitation Wind Pressure Humidity
    00:00 +22°C° 0 mm 3 mps 679 mmHg 26%
    01:00 +22°C° 0 mm 3 mps 679 mmHg 28%
    02:00 +21°C° 0 mm 3 mps 679 mmHg 29%
    03:00 +20°C° 0 mm 3 mps 678 mmHg 31%
    04:00 +20°C° 0 mm 4 mps 678 mmHg 32%
    05:00 +19°C° 0 mm 4 mps 678 mmHg 33%
    06:00 +20°C° 0 mm 4 mps 679 mmHg 31%
    07:00 +22°C° 0 mm 5 mps 679 mmHg 29%
    08:00 +23°C° 0 mm 5 mps 680 mmHg 27%
    09:00 +27°C° 0 mm 4 mps 680 mmHg 23%
    10:00 +30°C° 0 mm 4 mps 680 mmHg 19%
    11:00 +34°C° 0 mm 3 mps 681 mmHg 14%
    12:00 +35°C° 0 mm 3 mps 680 mmHg 12%
    13:00 +37°C° 0 mm 3 mps 680 mmHg 9%
    14:00 +38°C° 0 mm 2 mps 679 mmHg 7%
    15:00 +38°C° 0 mm 3 mps 679 mmHg 7%
    16:00 +38°C° 0 mm 4 mps 679 mmHg 6%
    17:00 +37°C° 0 mm 5 mps 678 mmHg 6%
    18:00 +35°C° 0 mm 5 mps 678 mmHg 8%
    19:00 +32°C° 0 mm 5 mps 679 mmHg 10%
    20:00 +29°C° 0 mm 5 mps 679 mmHg 11%
    21:00 +27°C° 0 mm 6 mps 679 mmHg 13%
    22:00 +24°C° 0 mm 6 mps 679 mmHg 14%
    23:00 +22°C° 0 mm 6 mps 680 mmHg 15%

    23 September, Monday

    Time Temperature Precipitation Wind Pressure Humidity
    00:00 +21°C° 0 mm 5 mps 680 mmHg 17%
    01:00 +19°C° 0 mm 4 mps 680 mmHg 19%
    02:00 +17°C° 0 mm 3 mps 680 mmHg 20%
    03:00 +16°C° 0 mm 3 mps 680 mmHg 24%
    04:00 +16°C° 0 mm 3 mps 680 mmHg 27%
    05:00 +15°C° 0 mm 2 mps 681 mmHg 31%
    06:00 +16°C° 0 mm 3 mps 681 mmHg 32%
    07:00 +17°C° 0 mm 3 mps 682 mmHg 33%
    08:00 +18°C° 0 mm 3 mps 682 mmHg 34%
    09:00 +20°C° 0 mm 3 mps 682 mmHg 29%
    10:00 +24°C° 0 mm 3 mps 682 mmHg 23%
    11:00 +26°C° 0 mm 3 mps 683 mmHg 18%
    12:00 +28°C° 0 mm 2 mps 682 mmHg 15%
    13:00 +30°C° 0 mm 2 mps 682 mmHg 12%
    14:00 +32°C° 0 mm 1 mps 682 mmHg 9%
    15:00 +32°C° 0 mm 1 mps 681 mmHg 9%
    16:00 +32°C° 0 mm 1 mps 681 mmHg 9%
    17:00 +32°C° 0 mm 1 mps 680 mmHg 9%
    18:00 +30°C° 0 mm 1 mps 681 mmHg 10%
    19:00 +27°C° 0 mm 1 mps 681 mmHg 12%
    20:00 +25°C° 0 mm 1 mps 682 mmHg 13%
    21:00 +24°C° 0 mm 2 mps 682 mmHg 27%
    22:00 +22°C° 0 mm 3 mps 682 mmHg 40%
    23:00 +21°C° 0 mm 4 mps 683 mmHg 53%

    24 September, Tuesday

    Time Temperature Precipitation Wind Pressure Humidity
    00:00 +20°C° 0 mm 4 mps 683 mmHg 60%
    01:00 +19°C° 0 mm 3 mps 683 mmHg 67%
    02:00 +18°C° 0 mm 3 mps 683 mmHg 74%
    03:00 +17°C° 0 mm 4 mps 683 mmHg 75%
    04:00 +17°C° 0 mm 4 mps 683 mmHg 76%
    05:00 +16°C° 0 mm 5 mps 683 mmHg 78%
    06:00 +16°C° 0 mm 5 mps 684 mmHg 76%
    07:00 +17°C° 0 mm 5 mps 684 mmHg 74%
    08:00 +17°C° 0 mm 5 mps 685 mmHg 71%
    09:00 +19°C° 0 mm 5 mps 685 mmHg 67%
    10:00 +20°C° 0 mm 5 mps 685 mmHg 64%
    11:00 +21°C° 0 mm 5 mps 685 mmHg 60%
    12:00 +23°C° 0 mm 4 mps 684 mmHg 52%
    13:00 +26°C° 0 mm 4 mps 684 mmHg 45%
    14:00 +28°C° 0 mm 4 mps 684 mmHg 37%
    15:00 +28°C° 0 mm 4 mps 684 mmHg 36%
    16:00 +28°C° 0 mm 3 mps 683 mmHg 34%
    17:00 +28°C° 0 mm 3 mps 683 mmHg 32%
    18:00 +27°C° 0 mm 3 mps 683 mmHg 38%
    19:00 +25°C° 0 mm 3 mps 683 mmHg 44%
    20:00 +22°C° 0 mm 4 mps 683 mmHg 50%
    21:00 +21°C° 0 mm 4 mps 683 mmHg 55%
    22:00 +20°C° 0 mm 4 mps 683 mmHg 59%
    23:00 +19°C° 0 mm 4 mps 683 mmHg 63%

    25 September, Wednesday

    Time Temperature Precipitation Wind Pressure Humidity
    00:00 +18°C° 0 mm 4 mps 683 mmHg 67%
    01:00 +17°C° 0 mm 5 mps 683 mmHg 71%
    02:00 +16°C° 0 mm 5 mps 683 mmHg 75%
    03:00 +15°C° 0 mm 5 mps 683 mmHg 78%
    04:00 +14°C° 0 mm 5 mps 683 mmHg 80%
    05:00 +13°C° 0 mm 4 mps 684 mmHg 83%
    06:00 +14°C° 0 mm 5 mps 685 mmHg 79%
    07:00 +15°C° 0 mm 6 mps 685 mmHg 74%
    08:00 +15°C° 0 mm 6 mps 686 mmHg 70%
    09:00 +16°C° 0 mm 6 mps 687 mmHg 65%
    10:00 +17°C° 0 mm 6 mps 687 mmHg 60%
    11:00 +20°C° 0 mm 6 mps 687 mmHg 54%
    12:00 +21°C° 0 mm 6 mps 687 mmHg 49%
    13:00 +23°C° 0 mm 6 mps 687 mmHg 44%
    14:00 +24°C° 0 mm 6 mps 687 mmHg 39%
    15:00 +24°C° 0 mm 6 mps 687 mmHg 39%
    16:00 +24°C° 0 mm 6 mps 686 mmHg 38%
    17:00 +23°C° 0 mm 6 mps 686 mmHg 38%
    18:00 +22°C° 0 mm 5 mps 686 mmHg 42%
    19:00 +20°C° 0 mm 3 mps 686 mmHg 47%
    20:00 +18°C° 0 mm 2 mps 687 mmHg 51%
    21:00 +18°C° 0 mm 3 mps 687 mmHg 52%
    22:00 +17°C° 0 mm 3 mps 687 mmHg 54%
    23:00 +17°C° 0 mm 4 mps 687 mmHg 55%
    Show more